Weather History for Trinidad, CO

Change the Weather History Date:

Wednesday, February 27, 2013

  Actual Average Record
Temperature  
Mean Temperature 27 °F 38 °F  
Max Temperature 38 °F 53 °F 77 °F (1980)
Min Temperature 15 °F 23 °F -10 °F (1962)
Degree Days  
Heating Degree Days 38 27  
Month to date heating degree days 857 814  
Since 1 July heating degree days 3907 4096  
Cooling Degree Days 0 0  
Month to date cooling degree days 0 0  
Year to date cooling degree days 0 0  
Moisture  
Dew Point 12 °F    
Average Humidity 56    
Maximum Humidity 80    
Minimum Humidity 32    
Precipitation  
Precipitation T in 0.02 in 0.18 in (1990)
Month to date precipitation 0.30 0.47  
Year to date precipitation 0.38 0.87  
Sea Level Pressure  
Sea Level Pressure 30.24 in    
Wind  
Wind Speed 8 mph (North)    
Max Wind Speed 20 mph    
Max Gust Speed 25 mph    
Visibility 10 miles    
Events      
T = Trace of Precipitation, MM = Missing Value Source: NWS Daily Summary

Daily Weather History Graph

Daily Weather History Graph

Search for Another Location

Airport:

Trip Planner

Search our weather history database for the weather conditions in past years. The results will help you decide how hot, cold, wet, or windy it might be!

Date:

Astronomy

Feb. 27, 2013 Rise Set
Actual Time 6:30 AM MST 5:49 PM MST
Civil Twilight 6:04 AM MST 6:15 PM MST
Nautical Twilight 5:34 AM MST 6:46 PM MST
Astronomical Twilight 5:04 AM MST 7:16 PM MST
Moon 8:09 PM MST (2/27) 7:11 AM MST (2/27)
Length of Visible Light 12h 11m
Length of Day
11h 18m
Waning Gibbous, 96% of the Moon is Illuminated
Feb 27
Waning Gibbous
Mar 4
Last Quarter
Mar 11
New
Mar 19
First Quarter
Mar 27
Full

Hourly Weather History & Observations

Time (MST) Temp. Windchill Dew Point Humidity Pressure Visibility Wind Dir Wind Speed Gust Speed Precip Events Conditions
12:54 AM 25.0 °F 13.1 °F 15.1 °F 66% 30.11 in 10.0 mi NNW 13.8 mph 24.2 mph N/A   Scattered Clouds
1:54 AM 24.1 °F 12.5 °F 15.1 °F 69% 30.14 in 10.0 mi NNW 12.7 mph - N/A   Partly Cloudy
2:54 AM 23.0 °F 10.6 °F 15.1 °F 72% 30.17 in 10.0 mi NNW 13.8 mph - N/A   Scattered Clouds
3:54 AM 21.9 °F 13.4 °F 14.0 °F 72% 30.19 in 10.0 mi NNW 6.9 mph - N/A   Partly Cloudy
4:54 AM 21.9 °F 11.7 °F 14.0 °F 72% 30.22 in 10.0 mi North 9.2 mph - N/A   Clear
5:54 AM 19.9 °F 11.1 °F 12.0 °F 71% 30.26 in 10.0 mi WNW 6.9 mph - N/A   Overcast
6:54 AM 15.1 °F 4.2 °F 10.0 °F 80% 30.31 in 10.0 mi WSW 8.1 mph - N/A   Partly Cloudy
8:54 AM 28.0 °F 17.5 °F 14.0 °F 56% 30.30 in 10.0 mi NNW 12.7 mph - N/A   Clear
9:54 AM 30.0 °F 20.0 °F 14.0 °F 51% 30.31 in 10.0 mi North 12.7 mph 20.7 mph N/A   Clear
10:54 AM 32.0 °F 27.5 °F 12.9 °F 45% 30.30 in - North 4.6 mph - N/A   Clear
11:54 AM 35.1 °F 27.4 °F 12.9 °F 40% 30.27 in 10.0 mi North 10.4 mph - N/A   Unknown
12:54 PM 36.0 °F 29.6 °F 12.9 °F 39% 30.24 in 10.0 mi North 8.1 mph - N/A   Clear
1:54 PM 35.1 °F 31.0 °F 12.0 °F 39% 30.23 in 10.0 mi Variable 4.6 mph - N/A   Clear
2:54 PM 37.0 °F 34.5 °F 10.9 °F 34% 30.22 in 10.0 mi Variable 3.5 mph - N/A   Clear
3:54 PM 36.0 °F 32.1 °F 10.9 °F 36% 30.21 in 10.0 mi East 4.6 mph - N/A   Clear
4:54 PM 36.0 °F 31.1 °F 10.0 °F 34% 30.22 in 10.0 mi East 5.8 mph - N/A   Clear
5:54 PM 30.9 °F 26.2 °F 9.0 °F 40% 30.25 in 10.0 mi ESE 4.6 mph - N/A   Clear
7:54 PM 28.0 °F - 9.0 °F 45% 30.27 in 10.0 mi Calm Calm - N/A   Clear
8:54 PM 21.9 °F 14.5 °F 10.0 °F 60% 30.29 in 10.0 mi North 5.8 mph - N/A   Clear
9:54 PM 21.0 °F 13.4 °F 10.0 °F 63% 30.30 in 10.0 mi NE 5.8 mph - N/A   Clear